This is the latest recevied weather packets stored in our database for station/object N9OJR. If no packets are shown the sender has not sent any weather packets the latest 10 day(s).
| Time | Temp. | Humidity | Pressure | Rain* | Wind** | Luminosity | Snow |
|---|---|---|---|---|---|---|---|
| 1778005640 | 19.44° C | 70% | 1004.7 hPa | 0 mm | - | 236 W/m² | - |
| 1778005337 | 19.44° C | 71% | 1005 hPa | 0 mm | - | 210 W/m² | - |
| 1778005034 | 18.89° C | 71% | 1004.7 hPa | 0 mm | - | 203 W/m² | - |
| 1778004732 | 18.89° C | 71% | 1004.8 hPa | 0 mm | - | 128 W/m² | - |
| 1778004428 | 18.89° C | 71% | 1005 hPa | 0 mm | - | 122 W/m² | - |
| 1778004125 | 18.89° C | 71% | 1004.7 hPa | 0 mm | - | 91 W/m² | - |
| 1778003820 | 18.89° C | 70% | 1004.6 hPa | 0 mm | - | 88 W/m² | - |
| 1778003517 | 19.44° C | 71% | 1004.6 hPa | 0 mm | - | 90 W/m² | - |
| 1778003214 | 19.44° C | 69% | 1004.3 hPa | 0 mm | - | 117 W/m² | - |
| 1778002910 | 19.44° C | 69% | 1004.3 hPa | 0 mm | - | 170 W/m² | - |
| 1778002606 | 20° C | 68% | 1004.7 hPa | 0 mm | - | 179 W/m² | - |
| 1778002304 | 19.44° C | 69% | 1004.3 hPa | 0 mm | - | 267 W/m² | - |
| 1778002001 | 19.44° C | 69% | 1004.1 hPa | 0 mm | - | 189 W/m² | - |
| 1778001698 | 19.44° C | 69% | 1004.5 hPa | 0 mm | - | 92 W/m² | - |
| 1778001392 | 19.44° C | 69% | 1004.3 hPa | 0 mm | - | 132 W/m² | - |
| 1778001090 | 20° C | 68% | 1004.3 hPa | 0 mm | - | 168 W/m² | - |
| 1778000787 | 20° C | 69% | 1004.6 hPa | 0 mm | - | 427 W/m² | - |
| 1778000483 | 20° C | 68% | 1004.6 hPa | 0 mm | - | 229 W/m² | - |
| 1778000177 | 20° C | 68% | 1004.3 hPa | 0 mm | - | 144 W/m² | - |
| 1777999874 | 20° C | 68% | 1004.2 hPa | 0 mm | - | 170 W/m² | - |
| 1777999570 | 20° C | 67% | 1004.3 hPa | 0 mm | - | 161 W/m² | - |
| 1777999268 | 20° C | 66% | 1004 hPa | 0 mm | - | 164 W/m² | - |
| 1777998966 | 20.56° C | 65% | 1004.3 hPa | 0 mm | - | 182 W/m² | - |
| 1777998663 | 21.11° C | 64% | 1004.5 hPa | 0 mm | - | 344 W/m² | - |
| 1777998360 | 21.11° C | 64% | 1004.2 hPa | 0 mm | - | 511 W/m² | - |
* Rain latest hour (hover to see other rain measurements)
** Current wind speed in m/s (hover to see current wind gust speed)